BEIDOU-3 IGSO-2

Last updated on Tue Sep 22 2026 00:03:15 GMT+0000 (Coordinated Universal Time)

1 44337U 19035A 26264.49128899 -.00000155 00000+0 00000+0 0 9999 2 44337 55.2500 158.0169 0038668 210.4449 288.5069 1.00270800 26638
UTC large
Height (km)
Speed (km/s)
/
Latitude / Longitude
Inclination (degrees)
Orbital Period (minutes)
Azimuth
Elevation
Range (km)
Doppler Factor

Next 0 passes for location: London (51.5072 / 0.1276)

No passes found over London.
BEIDOU-3 IGSO-2